Location: ???????
(55.4362°N, 38.1183°E)
Time: 02:52:55
(UTC+00:00)

Cosmos 1802 Rocket - Visible Passes

Search period start: 23 October 2021 00:00
Search period end: 02 November 2021 00:00
Orbit: 953 x 1012 km, 82.9° (Epoch: 22 October)

Date Brightness Start Highest point End Pass type
(mag) Time Alt. Az. Time Alt. Az. Time Alt. Az.
23 Oct 6.1 02:42:22 10° N 02:47:38 28° ENE 02:52:56 10° ESE visible
23 Oct 4.7 16:28:32 32° ENE 16:28:32 32° ENE 16:33:01 10° NNE visible
23 Oct 4.4 18:13:18 57° NW 18:13:18 57° NW 18:19:00 10° N visible
23 Oct 6.4 19:58:04 14° WNW 19:59:56 16° NW 20:03:34 10° NNW visible
24 Oct 6.8 01:25:52 10° NNE 01:28:11 12° NE 01:30:32 10° ENE visible
24 Oct 5.4 03:09:44 10° N 03:15:39 42° ENE 03:21:37 10° SE visible
24 Oct 5.6 15:10:25 12° ENE 15:10:49 12° ENE 15:12:50 10° NE visible
24 Oct 4.0 16:55:11 53° E 16:55:11 53° E 17:00:57 10° NNE visible
24 Oct 5.2 18:39:55 35° W 18:40:47 37° WNW 18:46:30 10° N visible
24 Oct 6.7 20:27:22 10° NW 20:28:28 10° NW 20:29:33 10° NNW visible
25 Oct 6.6 01:52:29 10° N 01:56:39 18° NE 02:00:50 10° E visible
25 Oct 4.5 03:37:16 10° N 03:43:30 67° ENE 03:49:48 10° SSE visible
25 Oct 5.1 15:36:36 19° E 15:37:47 20° ENE 15:42:03 10° NNE visible
25 Oct 3.8 17:21:18 61° S 17:22:28 86° E 17:28:41 10° NNE visible
25 Oct 5.9 19:05:57 17° W 19:08:53 24° WNW 19:13:50 10° N visible
26 Oct 6.1 02:19:39 10° N 02:24:54 27° ENE 02:30:10 10° ESE visible
26 Oct 4.5 15:59:37 10° SE 16:04:56 32° E 16:10:18 10° NNE visible
26 Oct 4.4 17:44:07 10° SSW 17:50:10 60° WNW 17:56:18 10° N visible
26 Oct 6.4 19:33:28 10° W 19:37:11 16° NW 19:40:55 10° NNW visible
27 Oct 6.8 01:03:14 10° NNE 01:05:27 12° NE 01:07:40 10° ENE visible
27 Oct 5.4 02:47:02 10° N 02:52:56 41° ENE 02:58:53 10° SE visible
27 Oct 5.6 14:46:22 10° E 14:48:09 11° ENE 14:49:57 10° NE visible
27 Oct 4.0 16:26:21 10° SSE 16:32:15 52° E 16:38:14 10° NNE visible
27 Oct 5.2 18:12:23 10° SW 18:18:03 38° WNW 18:23:48 10° N visible
27 Oct 6.8 20:04:16 10° NW 20:05:41 11° NW 20:07:07 10° NNW visible
28 Oct 6.6 01:29:48 10° N 01:33:54 18° NE 01:38:02 10° E visible
28 Oct 4.5 03:14:32 10° N 03:20:48 65° ENE 03:27:06 10° SSE visible
28 Oct 5.1 15:10:57 10° ESE 15:15:07 19° ENE 15:19:18 10° NE visible
28 Oct 3.8 16:53:37 10° S 16:59:46 84° E 17:05:59 10° NNE visible
28 Oct 5.9 18:41:10 10° WSW 18:46:08 25° WNW 18:51:10 10° N visible
29 Oct 6.1 01:56:57 10° N 02:02:11 27° ENE 02:07:25 10° ESE visible
29 Oct 4.1 03:42:11 10° NNW 03:48:28 81° W 03:54:50 10° S visible
29 Oct 4.6 15:36:59 10° SE 15:42:15 31° E 15:47:35 10° NNE visible
29 Oct 4.3 17:21:22 10° SSW 17:27:27 62° WNW 17:33:37 10° N visible
29 Oct 6.4 19:10:37 10° W 19:14:25 17° NW 19:18:17 10° N visible
30 Oct 6.8 00:40:36 10° NNE 00:42:42 12° NE 00:44:47 10° ENE visible
30 Oct 5.4 02:24:19 10° N 02:30:14 40° ENE 02:36:10 10° SE visible
30 Oct 4.0 16:03:40 10° SSE 16:09:34 51° E 16:15:32 10° NNE visible
30 Oct 5.2 17:49:37 10° SW 17:55:19 39° WNW 18:01:07 10° N visible
30 Oct 6.8 19:41:13 10° WNW 19:42:56 11° NW 19:44:39 10° NNW visible
31 Oct 6.6 01:07:07 10° N 01:11:10 17° NE 01:15:14 10° E visible
31 Oct 4.6 02:51:50 10° N 02:58:06 63° ENE 03:04:25 10° SSE visible
31 Oct 5.2 14:48:21 10° ESE 14:52:26 19° ENE 14:56:33 10° NE visible
31 Oct 3.8 16:30:54 10° S 16:37:03 82° E 16:43:17 10° NNE visible
31 Oct 5.9 18:18:22 10° WSW 18:23:24 26° WNW 18:28:30 10° N visible
01 Nov 6.1 01:34:15 10° N 01:39:27 26° ENE 01:44:39 10° ESE visible
01 Nov 4.0 03:19:27 10° NNW 03:25:47 83° W 03:32:10 10° S visible
01 Nov 4.6 15:14:19 10° SE 15:19:34 30° E 15:24:52 10° NNE visible
01 Nov 4.3 16:58:38 10° SSW 17:04:44 63° WNW 17:10:56 10° N visible
01 Nov 6.4 18:47:45 10° W 18:51:40 17° NW 18:55:38 10° N visible
